GW2742 Weather Reports


Display with metric or nautical units.
time (UTC)temp
F
wind
direction
speed
MPH
gust
MPH
rain 1hr
in
rain 24hr
in
rain mn
in
humidity
%
barometer
mb
20260905182525 76 37 1.0 7.0 0.00 0.00 0.00 40 1017.1
20260905182028 75 40 2.0 7.0 0.00 0.00 0.00 36 1017.2
20260905181555 75 33 2.0 6.0 0.00 0.00 0.00 37 1017.2
20260905181025 75 1 3.0 6.0 0.00 0.00 0.00 44 1017.3
20260905180526 74 0 1.0 5.0 0.00 0.00 0.00 44 1017.4
20260905180051 74 344 1.0 7.0 0.00 0.00 0.00 43 1017.5
20260905175526 74 327 2.0 7.0 0.00 0.00 0.00 39 1017.6
20260905175024 74 1 1.0 7.0 0.00 0.00 0.00 42 1017.6
20260905174545 74 15 1.0 6.0 0.00 0.00 0.00 42 1017.7
20260905174024 74 25 2.0 6.0 0.00 0.00 0.00 38 1017.7
20260905173525 74 329 1.0 5.0 0.00 0.00 0.00 37 1017.6
20260905173054 74 350 2.0 5.0 0.00 0.00 0.00 38 1017.7
20260905172525 74 131 1.0 4.0 0.00 0.00 0.00 38 1017.7
20260905172025 74 8 2.0 4.0 0.00 0.00 0.00 38 1017.7
20260905171550 73 7 1.0 4.0 0.00 0.00 0.00 36 1017.8
20260905171027 73 310 1.0 5.0 0.00 0.00 0.00 38 1017.7
20260905170527 73 0 0.0 5.0 0.00 0.00 0.00 42 1017.7
20260905170044 72 333 2.0 5.0 0.00 0.00 0.00 39 1017.7
20260905165526 72 25 1.0 7.0 0.00 0.00 0.00 41 1017.7
20260905165028 72 0 2.0 7.0 0.00 0.00 0.00 40 1017.8
20260905164546 72 79 3.0 7.0 0.00 0.00 0.00 39 1017.7
20260905164027 72 322 1.0 5.0 0.00 0.00 0.00 39 1017.7
20260905163524 71 0 0.0 5.0 0.00 0.00 0.00 41 1017.7
20260905163051 71 84 1.0 6.0 0.00 0.00 0.00 41 1017.8
20260905162523 71 346 2.0 7.0 0.00 0.00 0.00 41 1017.6
20260905162022 71 359 3.0 7.0 0.00 0.00 0.00 43 1017.7
20260905161546 71 288 2.0 6.0 0.00 0.00 0.00 43 1017.7
20260905161028 70 0 1.0 6.0 0.00 0.00 0.00 43 1017.7
20260905160524 70 314 1.0 6.0 0.00 0.00 0.00 45 1017.7
20260905160045 70 334 2.0 5.0 0.00 0.00 0.00 41 1017.7
20260905155526 70 348 1.0 5.0 0.00 0.00 0.00 43 1017.6
20260905155023 70 0 1.0 6.0 0.00 0.00 0.00 43 1017.7
20260905154559 70 48 1.0 6.0 0.00 0.00 0.00 43 1017.6
20260905154028 70 349 1.0 6.0 0.00 0.00 0.00 43 1017.6
20260905153528 69 354 1.0 5.0 0.00 0.00 0.00 47 1017.6
20260905153045 69 310 0.0 5.0 0.00 0.00 0.00 50 1017.5
20260905152528 68 0 0.0 4.0 0.00 0.00 0.00 49 1017.4
20260905152025 67 359 1.0 4.0 0.00 0.00 0.00 46 1017.4
20260905151606 67 0 0.0 3.0 0.00 0.00 0.00 49 1017.5
20260905151028 66 252 1.0 3.0 0.00 0.00 0.00 51 1017.5
20260905150527 65 252 1.0 3.0 0.00 0.00 0.00 53 1017.5
20260905150054 65 226 1.0 3.0 0.00 0.00 0.00 56 1017.5
20260905145526 64 226 1.0 3.0 0.00 0.00 0.00 54 1017.5
20260905145027 64 213 0.0 4.0 0.00 0.00 0.00 57 1017.5
20260905144549 63 0 1.0 4.0 0.00 0.00 0.00 57 1017.4
20260905144026 62 0 0.0 3.0 0.00 0.00 0.00 57 1017.5
20260905143525 61 259 1.0 3.0 0.00 0.00 0.00 57 1017.4
20260905143045 60 262 0.0 2.0 0.00 0.00 0.00 60 1017.4
20260905142530 60 0 0.0 2.0 0.00 0.00 0.00 63 1017.4
20260905142027 59 0 0.0 2.0 0.00 0.00 0.00 64 1017.3
20260905141550 58 285 0.0 3.0 0.00 0.00 0.00 66 1017.2
20260905141030 58 291 0.0 4.0 0.00 0.00 0.00 66 1017.0
20260905140527 57 238 1.0 4.0 0.00 0.00 0.00 65 1017.2
20260905140048 56 222 0.0 2.0 0.00 0.00 0.00 66 1017.0
20260905135527 56 0 0.0 2.0 0.00 0.00 0.00 69 1016.9
20260905135025 55 0 0.0 3.0 0.00 0.00 0.00 68 1016.8
20260905134543 54 0 0.0 4.0 0.00 0.00 0.00 69 1016.8
20260905134025 54 0 1.0 4.0 0.00 0.00 0.00 69 1016.9
20260905133524 53 199 2.0 4.0 0.00 0.00 0.00 71 1017.0
20260905133052 53 198 1.0 4.0 0.00 0.00 0.00 71 1016.8
20260905132525 52 184 0.0 4.0 0.00 0.00 0.00 71 1016.8
20260905132025 52 0 0.0 0.0 0.00 0.00 0.00 70 1016.7
20260905131601 52 0 0.0 0.0 0.00 0.00 0.00 71 1016.4
20260905131030 52 0 0.0 0.0 0.00 0.00 0.00 71 1016.2
20260905130524 52 0 0.0 0.0 0.00 0.00 0.00 70 1016.0
20260905130044 52 0 0.0 0.0 0.00 0.00 0.00 70 1016.1
20260905125524 52 0 0.0 0.0 0.00 0.00 0.00 69 1016.1
20260905125024 52 0 0.0 0.0 0.00 0.00 0.00 69 1016.1
20260905124543 52 0 0.0 0.0 0.00 0.00 0.00 69 1016.2
20260905124024 52 0 0.0 0.0 0.00 0.00 0.00 70 1016.1
20260905123526 52 0 0.0 0.0 0.00 0.00 0.00 69 1015.7
20260905123107 52 0 0.0 0.0 0.00 0.00 0.00 70 1015.6
20260905122527 53 0 0.0 0.0 0.00 0.00 0.00 67 1015.7
20260905122024 53 0 0.0 0.0 0.00 0.00 0.00 68 1015.8
20260905121546 53 0 0.0 0.0 0.00 0.00 0.00 68 1016.0
20260905121024 53 0 0.0 0.0 0.00 0.00 0.00 67 1016.0
20260905120524 53 0 0.0 0.0 0.00 0.00 0.00 68 1016.1
20260905120045 53 0 0.0 0.0 0.00 0.00 0.00 66 1016.1
20260905115529 53 0 0.0 0.0 0.00 0.00 0.00 67 1016.0
20260905115026 53 0 0.0 0.0 0.00 0.00 0.00 68 1015.9
20260905114546 53 0 0.0 0.0 0.00 0.00 0.00 67 1015.4
20260905114025 53 0 0.0 0.0 0.00 0.00 0.00 67 1015.4
20260905113525 53 0 0.0 0.0 0.00 0.00 0.00 67 1015.4
20260905113045 53 0 0.0 0.0 0.00 0.00 0.00 67 1015.4
20260905112525 54 0 0.0 2.0 0.00 0.00 0.00 67 1015.5
20260905112024 54 0 0.0 2.0 0.00 0.00 0.00 66 1015.5
20260905111549 54 0 0.0 2.0 0.00 0.00 0.00 66 1015.3
20260905111026 54 245 0.0 3.0 0.00 0.00 0.00 65 1015.4
20260905110528 54 0 0.0 3.0 0.00 0.00 0.00 65 1015.3
20260905110042 54 224 0.0 2.0 0.00 0.00 0.00 66 1015.2
20260905105524 54 0 0.0 2.0 0.00 0.00 0.00 68 1015.0
20260905105024 54 0 0.0 3.0 0.00 0.00 0.00 68 1014.8
20260905104551 54 224 1.0 3.0 0.00 0.00 0.00 67 1014.8
20260905104025 54 224 0.0 2.0 0.00 0.00 0.00 68 1014.8
20260905103525 54 224 1.0 2.0 0.00 0.00 0.00 67 1014.9
20260905103054 55 0 0.0 2.0 0.00 0.00 0.00 68 1014.8
20260905102524 55 224 1.0 3.0 0.00 0.00 0.00 66 1014.9
20260905102025 55 0 0.0 3.0 0.00 0.00 0.00 65 1014.9
20260905101544 55 224 1.0 3.0 0.00 0.00 0.00 66 1014.8
20260905101024 55 221 1.0 3.0 0.00 0.00 0.00 65 1014.6
20260905100523 56 228 1.0 3.0 0.00 0.00 0.00 64 1014.5
20260905100053 56 227 0.0 3.0 0.00 0.00 0.00 64 1014.5
20260905095524 56 0 1.0 2.0 0.00 0.00 0.00 62 1014.5
20260905095023 57 0 0.0 2.0 0.00 0.00 0.00 61 1014.8
20260905094553 57 237 0.0 3.0 0.00 0.00 0.00 64 1014.8
20260905094024 57 0 0.0 3.0 0.00 0.00 0.00 61 1014.9
20260905093525 57 245 2.0 3.0 0.00 0.00 0.00 61 1014.9
20260905093045 57 262 0.0 3.0 0.00 0.00 0.00 61 1014.3
20260905092523 58 354 0.0 2.0 0.00 0.00 0.00 60 1014.2
20260905092024 58 0 0.0 2.0 0.00 0.00 0.00 60 1014.3
20260905091551 58 0 0.0 5.0 0.00 0.00 0.00 58 1014.3
20260905091026 58 0 0.0 5.0 0.00 0.00 0.00 59 1014.5
20260905090523 58 220 1.0 5.0 0.00 0.00 0.00 59 1014.6
20260905090047 58 0 0.0 0.0 0.00 0.00 0.00 59 1014.2
20260905085524 59 0 0.0 0.0 0.00 0.00 0.00 58 1014.0
20260905085026 60 0 0.0 0.0 0.00 0.00 0.00 56 1014.0
20260905084553 60 0 0.0 1.0 0.00 0.00 0.00 54 1014.0
20260905084024 60 0 0.0 1.0 0.00 0.00 0.00 55 1014.3
20260905083530 61 325 0.0 3.0 0.00 0.00 0.00 52 1014.4
20260905083044 62 0 0.0 4.0 0.00 0.00 0.00 54 1014.3
20260905082524 62 304 1.0 4.0 0.00 0.00 0.00 50 1014.3
20260905082024 62 176 1.0 4.0 0.00 0.00 0.00 50 1014.2
20260905081543 62 178 0.0 3.0 0.00 0.00 0.00 52 1014.2
20260905081029 62 0 0.0 3.0 0.00 0.00 0.00 51 1014.2
20260905080523 62 0 0.0 4.0 0.00 0.00 0.00 50 1014.2
20260905080128 62 178 1.0 4.0 0.00 0.00 0.00 51 1014.3
20260905075524 62 207 1.0 3.0 0.00 0.00 0.00 51 1014.2
20260905075025 62 160 1.0 3.0 0.00 0.00 0.00 49 1014.2
20260905074544 62 159 1.0 2.0 0.00 0.00 0.00 49 1014.0
20260905074023 63 0 0.0 3.0 0.00 0.00 0.00 48 1013.9
20260905073523 63 0 0.0 4.0 0.00 0.00 0.00 49 1013.7
20260905073045 63 167 1.0 4.0 0.00 0.00 0.00 49 1013.9
20260905072528 64 237 0.0 2.0 0.00 0.00 0.00 50 1013.8
20260905072028 64 237 1.0 2.0 0.00 0.00 0.00 46 1013.6
20260905071542 64 237 0.0 2.0 0.00 0.00 0.00 47 1013.6
20260905071023 65 0 0.0 2.0 0.00 0.00 0.00 48 1013.7
20260905070528 65 0 0.0 2.0 0.00 0.00 0.00 48 1013.6
20260905070057 66 0 1.0 2.0 0.00 0.00 0.00 44 1013.6
20260905065527 66 237 0.0 2.0 0.00 0.00 0.00 45 1013.7
20260905065026 67 237 0.0 2.0 0.00 0.00 0.00 43 1013.4
20260905064553 67 237 1.0 2.0 0.00 0.00 0.00 41 1013.5
20260905064024 67 0 0.0 2.0 0.00 0.00 0.00 43 1013.4
20260905063525 67 237 0.0 2.0 0.00 0.00 0.00 41 1013.4
20260905063047 67 0 0.0 3.0 0.00 0.00 0.00 39 1013.2
20260905062524 68 0 1.0 3.0 0.00 0.00 0.00 39 1013.2
20260905062025 68 245 1.0 3.0 0.00 0.00 0.00 37 1013.1
20260905061546 69 0 0.0 3.0 0.00 0.00 0.00 37 1012.7
20260905061032 69 0 1.0 4.0 0.00 0.00 0.00 36 1012.6
20260905060528 70 340 2.0 4.0 0.00 0.00 0.00 35 1012.4
20260905060104 71 336 0.0 5.0 0.00 0.00 0.00 34 1012.3
20260905055527 71 0 1.0 6.0 0.00 0.00 0.00 34 1012.4
20260905055028 72 33 1.0 8.0 0.00 0.00 0.00 33 1012.4
20260905054554 72 50 2.0 8.0 0.00 0.00 0.00 32 1012.5
20260905054028 72 345 4.0 7.0 0.00 0.00 0.00 33 1012.5
20260905053528 72 342 3.0 8.0 0.00 0.00 0.00 32 1012.4
20260905053056 73 357 3.0 8.0 0.00 0.00 0.00 31 1012.2
20260905052527 73 325 3.0 7.0 0.00 0.00 0.00 32 1011.9
20260905052025 73 249 3.0 7.0 0.00 0.00 0.00 32 1011.6
20260905051552 73 309 1.0 4.0 0.00 0.00 0.00 31 1011.5
20260905051024 73 330 1.0 8.0 0.00 0.00 0.00 31 1011.5
20260905050529 74 291 1.0 8.0 0.00 0.00 0.00 30 1011.4
20260905050045 74 256 1.0 8.0 0.00 0.00 0.00 30 1011.3
20260905045527 75 248 2.0 8.0 0.00 0.00 0.00 30 1011.5
20260905045032 74 250 4.0 10.0 0.00 0.00 0.00 30 1011.6
20260905044552 74 250 4.0 10.0 0.00 0.00 0.00 31 1011.6
20260905044027 74 218 3.0 8.0 0.00 0.00 0.00 31 1011.6
20260905043528 73 4 2.0 8.0 0.00 0.00 0.00 30 1011.3
20260905043104 73 278 2.0 8.0 0.00 0.00 0.00 31 1011.5
20260905042528 73 274 1.0 7.0 0.00 0.00 0.00 31 1011.3
20260905042024 72 127 1.0 7.0 0.00 0.00 0.00 32 1011.4
20260905041544 72 56 1.0 6.0 0.00 0.00 0.00 32 1011.2
20260905041025 72 172 1.0 6.0 0.00 0.00 0.00 32 1011.3
20260905040526 71 0 1.0 8.0 0.00 0.00 0.00 33 1011.3
20260905040052 71 213 1.0 8.0 0.00 0.00 0.00 36 1011.2
20260905035528 71 207 2.0 5.0 0.00 0.00 0.00 36 1011.2
20260905035028 71 176 2.0 5.0 0.00 0.00 0.00 36 1011.2
20260905034544 71 193 1.0 10.0 0.00 0.00 0.00 36 1011.1
20260905034028 71 239 3.0 10.0 0.00 0.00 0.00 33 1011.1
20260905033527 71 252 4.0 10.0 0.00 0.00 0.00 31 1011.0
20260905033044 71 262 0.0 2.0 0.00 0.00 0.00 30 1010.8
20260905032528 71 262 0.0 2.0 0.00 0.00 0.00 31 1010.8
20260905032025 71 0 0.0 2.0 0.00 0.00 0.00 31 1010.7
20260905031553 72 0 0.0 2.0 0.00 0.00 0.00 29 1010.7
20260905031027 72 262 1.0 3.0 0.00 0.00 0.00 29 1010.6
20260905030529 72 0 1.0 3.0 0.00 0.00 0.00 29 1010.4
20260905030049 73 1 0.0 2.0 0.00 0.00 0.00 30 1010.3
20260905025527 74 0 0.0 2.0 0.00 0.00 0.00 27 1010.2
20260905025027 74 0 0.0 2.0 0.00 0.00 0.00 27 1010.2
20260905024543 75 0 0.0 3.0 0.00 0.00 0.00 29 1010.0
20260905024025 76 0 1.0 3.0 0.00 0.00 0.00 26 1010.0
20260905023532 77 0 0.0 2.0 0.00 0.00 0.00 27 1009.8
20260905023045 77 0 0.0 3.0 0.00 0.00 0.00 25 1009.8
20260905022531 77 0 0.0 3.0 0.00 0.00 0.00 25 1009.7
20260905022026 78 229 0.0 3.0 0.00 0.00 0.00 27 1009.6
20260905021553 79 0 0.0 2.0 0.00 0.00 0.00 25 1009.4
20260905021024 80 0 0.0 1.0 0.00 0.00 0.00 25 1009.3
20260905020527 80 0 0.0 1.0 0.00 0.00 0.00 22 1009.2
20260905020053 81 181 0.0 3.0 0.00 0.00 0.00 22 1009.2
20260905015524 82 0 1.0 4.0 0.00 0.00 0.00 21 1009.2
20260905015026 83 181 1.0 4.0 0.00 0.00 0.00 21 1009.1
20260905014544 84 190 0.0 5.0 0.00 0.00 0.00 20 1009.0
20260905014029 84 123 2.0 5.0 0.00 0.00 0.00 20 1009.0
20260905013525 85 0 1.0 3.0 0.00 0.00 0.00 19 1009.0
20260905013047 85 83 0.0 3.0 0.00 0.00 0.00 18 1008.9
20260905012526 85 0 1.0 3.0 0.00 0.00 0.00 19 1008.9
20260905012025 86 198 0.0 4.0 0.00 0.00 0.00 20 1008.8
20260905011607 87 0 1.0 6.0 0.00 0.00 0.00 20 1008.7
20260905011025 87 184 1.0 13.0 0.00 0.00 0.00 19 1008.7
20260905010528 88 190 4.0 13.0 0.00 0.00 0.00 18 1008.5
20260905010045 88 120 7.0 13.0 0.00 0.00 0.00 16 1008.6
20260905005525 88 75 4.0 14.0 0.00 0.00 0.00 17 1008.3
20260905005028 88 107 3.0 14.0 0.00 0.00 0.00 17 1008.5
20260905004545 88 132 5.0 12.0 0.00 0.00 0.00 18 1008.3
20260905004024 88 137 4.0 10.0 0.00 0.00 0.00 18 1008.3
20260905003524 88 110 6.0 11.0 0.00 0.00 0.00 18 1008.3
20260905003056 89 126 5.0 13.0 0.00 0.00 0.00 16 1008.3
20260905002526 89 77 5.0 13.0 0.00 0.00 0.00 17 1008.2
20260905002028 89 98 5.0 13.0 0.00 0.00 0.00 17 1008.3
20260905001553 89 124 7.0 13.0 0.00 0.00 0.00 17 1008.3
20260905001027 89 142 7.0 13.0 0.00 0.00 0.00 16 1008.3
20260905000526 89 133 5.0 12.0 0.00 0.00 0.00 16 1008.3
20260905000048 89 118 5.0 15.0 0.00 0.00 0.00 18 1008.3
20260904235527 89 65 6.0 15.0 0.00 0.00 0.00 17 1008.2
20260904235027 89 96 5.0 15.0 0.00 0.00 0.00 17 1008.5
20260904234546 89 97 6.0 15.0 0.00 0.00 0.00 18 1008.5
20260904234024 89 127 6.0 15.0 0.00 0.00 0.00 15 1008.5
20260904233528 89 74 7.0 15.0 0.00 0.00 0.00 17 1008.5
20260904233053 89 95 4.0 12.0 0.00 0.00 0.00 18 1008.6
20260904232530 89 146 6.0 12.0 0.00 0.00 0.00 16 1008.6
20260904232027 89 101 5.0 12.0 0.00 0.00 0.00 20 1008.5
20260904231548 89 160 5.0 13.0 0.00 0.00 0.00 16 1008.6
20260904231027 90 124 7.0 13.0 0.00 0.00 0.00 16 1008.6
20260904230531 90 105 5.0 9.0 0.00 0.00 0.00 17 1008.6
20260904230049 90 154 2.0 8.0 0.00 0.00 0.00 17 1008.6
20260904225525 90 90 2.0 9.0 0.00 0.00 0.00 20 1008.8
20260904225025 90 169 4.0 9.0 0.00 0.00 0.00 16 1008.7
20260904224544 90 139 4.0 9.0 0.00 0.00 0.00 18 1008.8
20260904224027 90 128 2.0 9.0 0.00 0.00 0.00 17 1008.8
20260904223526 90 117 3.0 7.0 0.00 0.00 0.00 15 1008.8
20260904223044 90 59 2.0 7.0 0.00 0.00 0.00 18 1008.9
20260904222524 90 68 2.0 8.0 0.00 0.00 0.00 19 1009.0
20260904222025 89 201 3.0 11.0 0.00 0.00 0.00 16 1009.0
20260904221544 89 64 4.0 11.0 0.00 0.00 0.00 17 1009.1
20260904221027 89 96 4.0 10.0 0.00 0.00 0.00 18 1009.1
20260904220527 89 87 4.0 10.0 0.00 0.00 0.00 16 1009.1
20260904220105 89 85 6.0 10.0 0.00 0.00 0.00 16 1009.2
20260904215530 89 125 3.0 9.0 0.00 0.00 0.00 22 1009.2
20260904215026 89 106 3.0 6.0 0.00 0.00 0.00 15 1009.2
20260904214546 89 79 1.0 5.0 0.00 0.00 0.00 16 1009.1
20260904214026 89 41 2.0 5.0 0.00 0.00 0.00 15 1009.1
20260904213527 89 33 0.0 10.0 0.00 0.00 0.00 17 1009.1
20260904213051 89 159 2.0 10.0 0.00 0.00 0.00 20 1009.1
20260904212529 89 69 2.0 7.0 0.00 0.00 0.00 16 1009.2
20260904212028 88 70 1.0 6.0 0.00 0.00 0.00 17 1009.1
20260904211545 88 287 0.0 13.0 0.00 0.00 0.00 20 1009.2
20260904211030 88 99 3.0 13.0 0.00 0.00 0.00 18 1009.2
20260904210526 88 175 5.0 10.0 0.00 0.00 0.00 18 1009.2
20260904210045 88 131 4.0 8.0 0.00 0.00 0.00 22 1009.4
20260904205529 88 325 3.0 7.0 0.00 0.00 0.00 18 1009.3
20260904205028 88 63 2.0 7.0 0.00 0.00 0.00 17 1009.4
20260904204544 88 0 3.0 12.0 0.00 0.00 0.00 16 1009.3
20260904204027 87 122 6.0 12.0 0.00 0.00 0.00 18 1009.4
20260904203527 87 91 3.0 8.0 0.00 0.00 0.00 18 1009.4
20260904203049 87 40 3.0 8.0 0.00 0.00 0.00 18 1009.4
20260904202526 87 25 1.0 6.0 0.00 0.00 0.00 19 1009.4
20260904202025 87 49 1.0 7.0 0.00 0.00 0.00 18 1009.4
20260904201600 87 349 2.0 7.0 0.00 0.00 0.00 21 1009.5
20260904201031 87 90 3.0 10.0 0.00 0.00 0.00 17 1009.6
20260904200524 87 82 4.0 10.0 0.00 0.00 0.00 22 1009.7
20260904200050 86 77 4.0 12.0 0.00 0.00 0.00 18 1009.6
20260904195525 86 142 6.0 12.0 0.00 0.00 0.00 21 1009.6
20260904195026 86 359 3.0 8.0 0.00 0.00 0.00 22 1009.7
20260904194542 86 146 4.0 8.0 0.00 0.00 0.00 19 1009.7
20260904194031 86 74 3.0 8.0 0.00 0.00 0.00 20 1009.8
20260904193527 86 84 4.0 7.0 0.00 0.00 0.00 19 1009.9
20260904193050 86 148 3.0 7.0 0.00 0.00 0.00 21 1009.9
20260904192533 86 94 4.0 7.0 0.00 0.00 0.00 19 1009.9
20260904192028 85 77 3.0 8.0 0.00 0.00 0.00 21 1010.1
20260904191544 85 89 4.0 8.0 0.00 0.00 0.00 24 1010.0
20260904191025 85 193 3.0 7.0 0.00 0.00 0.00 22 1010.1
20260904190525 85 220 2.0 10.0 0.00 0.00 0.00 24 1010.1
20260904190042 85 136 3.0 10.0 0.00 0.00 0.00 24 1010.1
20260904185524 85 311 2.0 8.0 0.00 0.00 0.00 25 1010.1
20260904185024 85 143 3.0 10.0 0.00 0.00 0.00 22 1010.3
20260904184544 84 64 5.0 10.0 0.00 0.00 0.00 24 1010.4
20260904184029 84 127 3.0 10.0 0.00 0.00 0.00 27 1010.3
20260904183530 84 89 1.0 6.0 0.00 0.00 0.00 22 1010.4
20260904183058 83 120 2.0 6.0 0.00 0.00 0.00 24 1010.7